Weather reports worldwide

Advertisment
Dresden-Klotzsche, Germany (10488): temperature & dewpoint: 16.06.2018 20:00:00 - 22.06.2018 20:00:00 (CEST)Dresden-Klotzsche, Germany (10488): temperature 5cm & temperature -5cm: 16.06.2018 20:00:00 - 22.06.2018 20:00:00 (CEST)Dresden-Klotzsche, Germany (10488): temperature -20cm & temperature -100cm: 16.06.2018 20:00:00 - 22.06.2018 20:00:00 (CEST)Dresden-Klotzsche, Germany (10488): wind speed & gusts: 16.06.2018 20:00:00 - 22.06.2018 20:00:00 (CEST)Dresden-Klotzsche, Germany (10488): wind direction: 16.06.2018 20:00:00 - 22.06.2018 20:00:00 (CEST)Dresden-Klotzsche, Germany (10488): reduced air pressure: 16.06.2018 20:00:00 - 22.06.2018 20:00:00 (CEST)Dresden-Klotzsche, Germany (10488): visibility: 16.06.2018 20:00:00 - 22.06.2018 20:00:00 (CEST)Dresden-Klotzsche, Germany (10488): sunshine duration: 16.06.2018 20:00:00 - 22.06.2018 20:00:00 (CEST)Dresden-Klotzsche, Germany (10488): precipitation: 16.06.2018 20:00:00 - 22.06.2018 20:00:00 (CEST)
Date & Time tt [°C] td [°C] tt 5cm [°C] tt -5cm [°C] tt -20cm [°C] tt -100cm [°C] ff [km/h] ff [kn] fx [km/h] fx [kn] dd ppp [hPa] vv [km] sd [min] rr [mm]
22.06.2018 20:00:00 11,6 8,7 11,2 19,2 20,2 18,7 9 5 33 18 WSW 1020,0 10 23 1,1
22.06.2018 19:00:00 12,6 8,0 11,1 20,2 20,2 18,7 9 5 29 16 SW 1019,3 55 25 0,4
22.06.2018 18:00:00 13,8 6,9 15,4 21,1 20,0 18,7 18 10 42 23 WNW 1019,5 40 28 0,0
22.06.2018 17:00:00 14,2 6,2 16,9 21,1 19,8 18,8 17 9 35 19 WNW 1019,2 45 9 0,0
22.06.2018 16:00:00 14,6 7,4 19,7 21,0 19,4 18,8 21 11 41 22 W 1019,0 10 39 0,0
22.06.2018 15:00:00 13,7 6,4 17,9 19,9 19,1 18,8 24 13 44 24 W 1018,9 10 23 0,0
22.06.2018 14:00:00 12,5 6,4 15,9 18,6 18,9 18,8 25 14 55 30 WSW 1019,1 35 16 0,0
22.06.2018 13:00:00 12,6 7,5 16,4 17,9 18,8 18,8 24 13 49 27 W 1018,9 10 11 0,0
22.06.2018 12:00:00 11,7 7,4 14,5 17,3 18,8 18,8 23 12 38 21 W 1019,0 25 5 0,1
22.06.2018 11:00:00 12,5 5,4 15,9 17,1 18,8 18,8 18 10 38 21 WSW 1018,6 10 1 0,0
22.06.2018 10:00:00 11,8 5,4 14,0 16,6 18,8 18,8 22 12 39 21 WSW 1018,7 45 0 0,0
22.06.2018 09:00:00 11,1 5,6 12,4 16,1 18,9 18,8 21 11 36 20 WSW 1018,8 45 0 0,0
22.06.2018 08:00:00 10,6 5,8 11,3 15,8 19,1 18,8 23 12 42 23 W 1018,7 45 9 0,0
22.06.2018 07:00:00 9,7 5,5 10,5 15,6 19,4 18,7 15 8 30 16 W 1018,7 10 47 0,0
22.06.2018 06:00:00 9,3 5,3 8,9 15,5 19,8 18,7 17 9 27 15 W 1018,9 50 28 0,0
22.06.2018 05:00:00 9,6 5,2 9,0 15,7 20,2 18,7 11 6 27 15 W 1019,0 10 0 0,0
22.06.2018 04:00:00 9,6 5,2 8,1 16,2 20,6 18,7 16 8 26 14 W 1019,1 60 0 0,0
22.06.2018 03:00:00 9,2 5,1 7,4 16,7 21,1 18,7 10 6 22 12 W 1019,0 60 0 0,0
22.06.2018 02:00:00 10,0 5,0 8,6 17,3 21,6 18,7 16 8 40 21 WNW 1018,6 60 0 0,0
22.06.2018 01:00:00 10,8 4,9 9,5 18,0 22,1 18,7 19 10 31 17 WNW 1018,4 60 0 0,0
22.06.2018 00:00:00 11,9 4,8 10,5 18,8 22,6 18,6 18 10 31 17 NW 1018,2 10 0 0,0
21.06.2018 23:00:00 12,2 3,9 10,4 19,7 23,2 18,6 13 7 27 14 NW 1018,1 60 0 0,0
21.06.2018 22:00:00 13,7 3,4 12,6 20,8 23,7 18,6 18 10 44 24 NW 1017,5 10 16 0,0
21.06.2018 21:00:00 14,9 3,2 14,1 22,1 24,2 18,6 20 11 58 31 NW 1016,6 60 60 0,0
21.06.2018 20:00:00 15,2 8,7 14,5 23,2 24,7 18,6 14 7 28 15 NW 1015,5 55 18 0,0
21.06.2018 19:00:00 15,6 11,9 15,8 24,4 25,1 18,6 18 10 33 18 NW 1015,1 35 43 0,0
21.06.2018 18:00:00 14,5 12,5 15,7 25,2 25,5 18,5 13 7 34 18 W 1015,1 20 4 0,7
21.06.2018 17:00:00 16,1 9,9 17,0 27,4 25,8 18,5 25 14 53 29 NW 1014,7 35 0 0,0
21.06.2018 16:00:00 18,2 9,2 20,4 29,1 25,7 18,5 44 24 68 37 NW 1013,1 35 44 0,0
21.06.2018 15:00:00 22,2 12,2 25,2 30,1 25,4 18,5 39 21 63 34 NW 1009,9 9 34 0,0
21.06.2018 14:00:00 26,9 12,8 28,9 30,6 25,0 18,5 39 21 64 35 WNW 1008,1 35 42 0,0
21.06.2018 13:00:00 28,6 12,1 32,7 30,1 24,4 18,5 31 17 61 33 W 1007,9 10 48 0,0
21.06.2018 12:00:00 29,5 13,7 34,0 29,4 23,8 18,4 35 19 54 29 SW 1008,4 45 45 0,0
21.06.2018 11:00:00 28,4 13,1 34,0 28,2 23,2 18,4 23 12 44 24 SW 1009,3 40 59 0,0
21.06.2018 10:00:00 27,1 12,9 32,6 26,2 22,8 18,4 18 10 34 18 SW 1010,5 10 60 0,0
21.06.2018 09:00:00 25,2 15,1 29,9 24,2 22,6 18,4 14 8 27 14 SW 1011,5 40 60 0,0
21.06.2018 08:00:00 22,7 14,7 25,1 22,5 22,7 18,4 8 4 18 10 S 1012,4 10 60 0,0
21.06.2018 07:00:00 20,7 14,6 21,7 21,7 22,9 18,3 10 5 13 7 S 1013,0 40 60 0,0
21.06.2018 06:00:00 18,6 14,4 17,9 21,5 23,2 18,3 8 5 11 6 SSW 1013,8 40 22 0,0
21.06.2018 05:00:00 18,5 13,9 15,3 22,0 23,6 18,3 6 3 13 7 SSW 1014,0 40 0 0,0
21.06.2018 04:00:00 19,8 13,8 16,1 22,7 24,0 18,3 5 3 18 10 SW 1014,4 45 0 0,0
21.06.2018 03:00:00 21,3 13,6 18,9 23,4 24,3 18,3 9 5 21 11 WSW 1014,8 10 0 0,0
21.06.2018 02:00:00 21,9 13,7 20,0 24,1 24,7 18,2 12 6 21 11 S 1014,9 50 0 0,0
21.06.2018 01:00:00 22,4 13,8 21,0 24,7 25,1 18,2 15 8 21 11 S 1015,3 10 0 0,0
21.06.2018 00:00:00 22,9 14,0 21,1 25,4 25,5 18,2 13 7 18 10 S 1015,7 50 0 0,0
20.06.2018 23:00:00 23,3 14,2 21,2 26,5 26,0 18,2 13 7 21 11 S 1016,1 50 0 0,0
20.06.2018 22:00:00 24,3 14,3 21,1 27,9 26,3 18,2 4 2 13 7 - 1016,3 10 3 0,0
20.06.2018 21:00:00 26,7 15,5 25,0 29,4 26,4 18,2 4 2 8 4 N 1016,1 50 30 0,0
20.06.2018 20:00:00 27,5 15,2 27,5 30,9 26,4 18,2 4 2 15 8 N 1016,2 10 40 0,0
20.06.2018 19:00:00 28,9 14,7 31,6 31,6 26,2 18,2 6 3 18 10 SW 1016,5 40 38 0,0
20.06.2018 18:00:00 28,7 14,4 32,2 32,6 25,7 18,2 9 5 23 13 - 1017,0 10 60 0,0
20.06.2018 17:00:00 29,0 14,9 35,0 32,7 25,1 18,2 8 4 28 15 WSW 1017,8 45 58 0,0
20.06.2018 16:00:00 28,4 14,0 33,9 32,0 24,3 18,2 13 7 27 15 SW 1018,4 10 58 0,0
20.06.2018 15:00:00 27,8 14,2 33,0 31,2 23,5 18,2 5 3 27 15 - 1019,2 10 47 0,0
20.06.2018 14:00:00 26,9 14,3 33,6 30,3 22,5 18,2 11 6 29 16 SW 1020,1 45 50 0,0
20.06.2018 13:00:00 26,0 14,0 31,3 28,4 21,7 18,2 8 4 23 13 - 1021,0 10 47 0,0
20.06.2018 12:00:00 25,1 13,8 31,9 26,4 20,9 18,2 8 4 21 11 SW 1021,7 10 57 0,0
20.06.2018 11:00:00 23,0 13,8 27,9 24,0 20,4 18,2 11 6 16 9 SSE 1022,6 10 35 0,0
20.06.2018 10:00:00 21,2 14,3 24,9 22,0 20,1 18,2 8 4 18 10 SE 1023,1 10 20 0,0
20.06.2018 09:00:00 20,1 14,4 24,5 20,3 20,0 18,2 13 7 18 10 SSE 1023,5 35 24 0,0
20.06.2018 08:00:00 18,5 14,2 19,2 19,5 20,0 18,2 6 4 11 6 S 1024,0 35 0 0,0
20.06.2018 07:00:00 17,9 14,5 18,2 19,0 20,1 18,2 4 2 8 4 ENE 1023,7 35 0 0,0
20.06.2018 06:00:00 16,8 14,6 16,8 18,8 20,3 18,2 5 3 8 4 NW 1024,0 10 7 0,0
20.06.2018 05:00:00 17,0 13,9 14,7 19,2 20,4 18,2 5 3 8 4 W 1023,9 10 0 0,0
20.06.2018 04:00:00 17,9 14,3 16,9 19,5 20,6 18,2 3 2 5 3 WNW 1023,8 40 0 0,0
20.06.2018 03:00:00 18,0 14,4 17,1 19,6 20,8 18,3 4 2 8 4 WNW 1023,7 40 0 0,0
20.06.2018 02:00:00 18,5 14,3 17,5 19,7 21,0 18,3 4 2 11 6 W 1023,6 40 0 0,0
20.06.2018 01:00:00 18,2 14,3 17,0 19,8 21,3 18,3 5 3 9 5 SSW 1023,6 40 0 0,0
20.06.2018 00:00:00 18,9 14,0 15,9 20,3 21,6 18,3 5 3 8 4 WSW 1023,3 10 0 0,0
19.06.2018 23:00:00 18,5 13,5 14,8 21,0 21,9 18,3 5 3 8 4 WSW 1023,2 10 0 0,0
19.06.2018 22:00:00 20,1 13,6 16,0 21,9 22,1 18,3 4 2 13 7 W 1022,7 10 2 0,0
19.06.2018 21:00:00 21,4 13,7 20,2 22,8 22,3 18,3 9 5 22 12 WNW 1022,0 10 0 0,0
19.06.2018 20:00:00 22,3 13,1 22,1 23,5 22,4 18,3 9 5 28 15 NW 1021,9 10 0 0,0
19.06.2018 19:00:00 22,9 12,6 23,1 24,3 22,4 18,3 17 9 27 14 WNW 1021,8 45 0 0,0
19.06.2018 18:00:00 23,6 13,0 24,7 25,0 22,3 18,3 16 8 29 16 WNW 1021,5 45 0 0,0
19.06.2018 17:00:00 24,0 12,5 26,0 25,6 22,0 18,3 19 11 34 18 WNW 1021,3 45 9 0,0
19.06.2018 16:00:00 23,7 12,3 26,3 25,6 21,6 18,3 17 9 29 16 W 1021,3 45 22 0,0
19.06.2018 15:00:00 24,4 13,3 30,2 24,6 21,1 18,3 16 9 32 17 WSW 1021,6 45 26 0,0
19.06.2018 14:00:00 22,3 13,8 25,5 24,1 20,7 18,4 18 10 31 17 W 1021,8 10 20 0,0
19.06.2018 13:00:00 21,9 13,8 25,3 22,9 20,3 18,4 16 8 31 17 W 1021,9 45 12 0,0
19.06.2018 12:00:00 21,5 13,4 25,8 22,5 19,9 18,4 14 8 26 14 W 1021,8 45 26 0,0
19.06.2018 11:00:00 20,8 14,3 26,3 20,9 19,6 18,4 13 7 23 13 W 1022,0 10 11 0,0
19.06.2018 10:00:00 20,6 13,7 24,5 20,1 19,4 18,4 17 9 29 16 W 1021,9 45 14 0,0
19.06.2018 09:00:00 19,5 13,2 21,2 19,1 19,3 18,4 18 10 26 14 W 1021,8 50 0 0,0
19.06.2018 08:00:00 18,9 12,4 19,7 18,5 19,3 18,4 11 6 25 13 WSW 1021,5 10 26 0,0
19.06.2018 07:00:00 17,7 12,0 19,5 17,5 19,4 18,4 10 5 16 8 SSW 1021,3 40 43 0,0
19.06.2018 06:00:00 15,7 11,7 14,9 17,1 19,7 18,4 9 5 15 8 SSW 1021,4 45 34 0,0
19.06.2018 05:00:00 14,6 11,2 12,6 17,4 20,0 18,4 10 6 16 8 SSW 1021,4 40 0 0,0
19.06.2018 04:00:00 15,0 11,4 13,0 17,9 20,3 18,4 11 6 13 7 S 1021,3 40 0 0,0
19.06.2018 03:00:00 15,7 11,6 12,9 18,4 20,6 18,4 8 4 14 8 S 1021,2 45 0 0,0
19.06.2018 02:00:00 16,7 11,9 15,7 18,9 20,8 18,4 10 5 13 7 S 1021,2 45 0 0,0
19.06.2018 01:00:00 16,9 11,8 15,8 19,3 21,1 18,4 9 5 11 6 S 1021,3 50 0 0,0
19.06.2018 00:00:00 17,7 11,5 16,1 19,7 21,5 18,4 10 6 13 7 S 1021,1 50 0 0,0
18.06.2018 23:00:00 18,1 11,0 14,3 20,4 21,8 18,4 7 4 9 5 SSW 1020,9 50 0 0,0
18.06.2018 22:00:00 19,2 10,8 14,9 21,4 22,0 18,4 5 3 13 7 SSW 1020,5 50 9 0,0
18.06.2018 21:00:00 20,6 10,8 18,9 22,3 22,2 18,4 8 4 15 8 WSW 1019,8 55 44 0,0
18.06.2018 20:00:00 21,1 10,5 20,8 22,9 22,2 18,4 5 3 23 12 W 1019,7 10 0 0,0
18.06.2018 19:00:00 21,4 10,1 22,2 23,5 22,2 18,4 11 6 22 12 W 1019,8 10 40 0,0
18.06.2018 18:00:00 21,4 9,5 23,2 23,4 22,1 18,4 11 6 23 12 WNW 1019,9 10 6 0,0
18.06.2018 17:00:00 21,0 10,2 22,2 23,8 22,0 18,4 16 9 26 14 W 1020,3 55 12 0,0
18.06.2018 16:00:00 21,4 9,8 24,5 23,9 21,7 18,4 14 8 25 13 WNW 1020,2 50 19 0,0
18.06.2018 15:00:00 20,6 11,5 23,9 23,6 21,5 18,4 14 8 24 13 WNW 1020,4 40 9 0,0
18.06.2018 14:00:00 19,8 11,2 23,0 23,4 21,2 18,4 15 8 31 17 W 1020,8 10 17 0,0
18.06.2018 13:00:00 20,3 10,9 26,3 22,5 20,9 18,4 13 7 24 13 W 1020,8 10 31 0,0
18.06.2018 12:00:00 18,0 11,1 21,0 21,8 20,7 18,4 13 7 22 12 NW 1021,3 10 0 0,0
18.06.2018 11:00:00 18,3 10,5 21,8 22,4 20,3 18,4 15 8 21 11 NW 1021,1 45 21 0,0
18.06.2018 10:00:00 18,4 10,7 22,2 21,2 20,0 18,4 9 5 16 9 N 1020,7 10 40 0,0
18.06.2018 09:00:00 17,4 9,9 20,2 19,8 19,9 18,4 8 4 16 9 W 1020,5 10 24 0,0
18.06.2018 08:00:00 16,7 10,5 21,5 18,8 19,9 18,4 9 5 18 10 WNW 1020,1 10 60 0,0
18.06.2018 07:00:00 15,7 11,4 18,3 17,8 20,2 18,4 4 2 11 6 - 1019,8 10 47 0,0
18.06.2018 06:00:00 14,1 11,1 14,4 17,5 20,5 18,4 5 3 11 6 NW 1020,2 10 19 0,0
18.06.2018 05:00:00 14,3 10,8 11,8 17,9 20,9 18,4 8 4 13 7 W 1019,6 10 0 0,0
18.06.2018 04:00:00 14,8 11,1 12,7 18,7 21,3 18,4 8 4 13 7 W 1019,0 10 0 0,0
18.06.2018 03:00:00 15,5 12,3 14,0 19,4 21,6 18,4 8 4 9 5 WNW 1018,7 10 0 0,0
18.06.2018 02:00:00 16,3 13,4 15,5 19,8 21,9 18,3 4 2 9 5 WNW 1018,4 10 0 0,0
18.06.2018 01:00:00 16,5 13,9 15,8 20,1 22,3 18,3 7 4 11 6 WNW 1018,5 50 0 0,0
18.06.2018 00:00:00 16,6 14,3 16,1 20,4 22,7 18,3 5 3 11 6 NW 1018,2 50 0 0,0
17.06.2018 23:00:00 17,0 14,2 14,8 21,2 23,2 18,3 5 3 11 6 W 1017,6 40 0 0,0
17.06.2018 22:00:00 17,4 14,6 15,1 22,2 23,6 18,3 2 1 9 5 - 1017,6 10 0 0,0
17.06.2018 21:00:00 18,2 14,6 17,3 23,1 24,0 18,3 4 2 15 8 - 1016,8 10 0 0,0
17.06.2018 20:00:00 17,9 16,2 17,9 23,8 24,5 18,3 4 2 18 10 - 1016,6 10 0 0,9
17.06.2018 19:00:00 16,6 15,5 17,2 25,8 24,8 18,3 21 11 42 23 WNW 1016,4 4,5 0 6,4
17.06.2018 18:00:00 20,9 14,3 21,5 26,8 25,0 18,3 9 5 24 13 S 1015,3 10 0 0,0
17.06.2018 17:00:00 21,5 13,2 22,3 28,1 24,9 18,3 19 10 36 20 WSW 1015,2 50 0 0,0
17.06.2018 16:00:00 22,8 13,7 24,1 29,9 24,6 18,3 28 15 49 27 W 1014,4 40 23 0,0
17.06.2018 15:00:00 27,0 12,7 33,2 29,9 24,1 18,3 18 10 35 19 W 1013,5 50 26 0,0
17.06.2018 14:00:00 25,9 10,9 32,0 29,7 23,4 18,3 16 9 26 14 W 1013,9 50 44 0,0
17.06.2018 13:00:00 26,7 11,2 34,7 28,3 22,8 18,3 9 5 22 12 - 1014,0 10 34 0,0
17.06.2018 12:00:00 25,2 11,0 30,8 27,7 22,1 18,3 8 4 21 11 - 1014,5 10 53 0,0
17.06.2018 11:00:00 25,0 11,1 32,9 25,8 21,6 18,2 8 4 21 11 - 1014,7 10 60 0,0
17.06.2018 10:00:00 24,1 12,7 31,2 23,5 21,2 18,2 8 4 17 9 WNW 1014,8 10 52 0,0
17.06.2018 09:00:00 21,7 11,7 25,6 21,5 21,1 18,2 11 6 15 8 SSW 1015,0 10 35 0,0
17.06.2018 08:00:00 18,2 11,6 18,7 20,4 21,2 18,2 8 4 15 8 S 1015,0 50 0 0,0
17.06.2018 07:00:00 16,5 11,7 16,8 20,0 21,4 18,2 8 4 15 8 S 1014,9 10 0 0,0
17.06.2018 06:00:00 15,7 11,7 15,5 20,0 21,7 18,2 13 7 22 12 SSE 1014,6 50 0 0,0
17.06.2018 05:00:00 15,4 11,8 15,0 20,2 22,0 18,2 12 7 15 8 SSE 1014,7 50 0 0,0
17.06.2018 04:00:00 14,8 11,5 13,4 20,7 22,3 18,2 10 6 18 10 S 1014,9 55 0 0,0
17.06.2018 03:00:00 17,6 11,4 16,3 21,1 22,6 18,1 14 8 18 10 SSE 1014,8 55 0 0,0
17.06.2018 02:00:00 18,1 11,3 16,8 21,6 22,9 18,1 13 7 18 10 SSE 1015,0 10 0 0,0
17.06.2018 01:00:00 18,1 11,6 16,6 22,2 23,2 18,1 9 5 15 8 S 1015,2 10 0 0,0
17.06.2018 00:00:00 19,1 11,2 15,6 22,9 23,6 18,1 7 4 13 7 SSE 1015,0 45 0 0,0
16.06.2018 23:00:00 20,2 11,4 17,8 23,8 23,9 18,1 10 6 13 7 SSE 1014,8 45 0 0,0
16.06.2018 22:00:00 21,6 11,0 20,0 24,7 24,1 18,1 4 2 11 6 E 1014,6 10 0 0,0
16.06.2018 21:00:00 22,1 11,4 21,6 25,6 24,3 18,1 4 2 11 6 - 1014,3 10 0 0,0
16.06.2018 20:00:00 22,5 12,5 22,5 26,7 24,4 18,1 5 3 13 7 ENE 1014,0 10 1 0,0

tt = temperature
td = dewpoint
tt 5cm = temperature 5cm
tt -5cm = temperature -5cm
tt -20cm = temperature -20cm
tt -100cm = temperature -100cm
ff = wind speed
fx = gusts
dd = wind direction
ppp = reduced air pressure
vv = visibility
sd = sunshine duration
rr = precipitation

Next stations